Regional Weather Roundup
Issued by NWS Newport/Morehead, NC

Home | Current Version | Previous Version | Text Only | Print | Product List | Glossary On
Versions: 1 2 3 4 5 6 7 8 9 10 11 12 13 14 15 16 17 18 19 20 21 22 23 24 25 26 27 28 29 30 31 32 33 34 35 36 37 38 39 40 41 42 43 44 45 46 47 48 49 50
250
ASUS42 KMHX 221626
RWRMHX
WEATHER ROUNDUP FOR EASTERN NORTH CAROLINA
NATIONAL WEATHER SERVICE NEWPORT/MOREHEAD CITY NC
1200 PM EDT MON MAY 22 2017

NOTE: "FAIR" INDICATES FEW OR NO CLOUDS BELOW 12,000 FEET
WITH NO SIGNIFICANT WEATHER AND/OR OBSTRUCTIONS TO VISIBILITY

NCZ015>017-031-032-045>047-102-103-221700-
NORTH COAST

CITY           SKY/WX    TMP DP  RH WIND       PRES   REMARKS
EDENTON        CLOUDY    81  71  71 S10       30.01F
ELIZABETH CITY CLOUDY    78  69  73 S8        30.03F
KITTY HAWK     NOT AVBL
MANTEO         CLOUDY    76  71  82 S14       30.05F

$$

NCZ045>047-081-094-103-104-221700-
CENTRAL COAST

CITY           SKY/WX    TMP DP  RH WIND       PRES   REMARKS
FRISCO         CLOUDY    79  70  74 S7        30.07F

$$

NCZ095-097-098-100-101-221700-
SOUTHERN COAST

CITY           SKY/WX    TMP DP  RH WIND       PRES   REMARKS
BEAUFORT       MOSUNNY   80  71  74 SW16      30.06F
CEDAR ISLAND   NOT AVBL
JACKSONVILLE   NOT AVBL
PINEY ISLAND   CLOUDY   N/A N/A N/A S14       30.05F
WILMINGTON     CLOUDY    81  69  67 SW13      30.06S


$$

NCZ011>013-027>030-043-044-078>080-089-090>093-098-221700-
COASTAL PLAIN

CITY           SKY/WX    TMP DP  RH WIND       PRES   REMARKS
AHOSKIE          N/A     75  70  85 S7        29.99F
CLINTON        MOSUNNY   82  72  72 SW6       30.03F
ELIZABETHTOWN  CLOUDY    80  70  70 SW10      30.05F
GOLDSBORO      PTSUNNY   83  72  68 SW21      29.99F
GREENVILLE     PTSUNNY   81  68  65 SW12G23   30.02F
HAVELOCK       PTSUNNY   82  66  58 SW12G22   30.05F
KENANSVILLE    CLOUDY    81  70  69 SW7       30.03F
KINSTON        CLOUDY    82  70  65 S18       30.02F
NEW BERN       MOSUNNY   81  66  60 SW15G22   30.05F
RICHLANDS      CLOUDY    82  71  69 SW10G20   30.04F
ROCKY MOUNT    CLOUDY    77  71  82 SW15G22   29.99F
WASHINGTON     CLOUDY    80  68  66 S10G23    30.01F
WHITEVILLE     CLOUDY    81  69  68 SW8       30.05F

$$

AMZ130-135-150-152-154-156-158-170-250-252-270-ANZ085-086-088-633-658-670-221700-
MARINE OBSERVATIONS

STATION/POSITION TIME  TEMP    WIND        PRES    WAVE   SWELL
                       AIR SEA DIR/SP/G            HT/PER HT/PER
                 (UTC) (F)     (DEG/KT/KT) (MB)    (FT/S) (FT/S)
CHESAPEAKE LIGHT NOT AVBL
64 E VA BEACH    1550   70 69  170/ 10/ 12 1018.6    4/ 7   3/ 7
DUCK             1600   72 66  140/  9/ 10 1016.8
2 E DUCK         1600      67                N/A     4/ 7
OREGON INLET     1600   76 69  170/ 10/ 13 1017.7
13E OREGON INLT  1548      66                N/A     4/ 9   3/ 9
HATTERAS CG      1600   76 74  150/  8/ 10 1018.0
DIAMOND BUOY     1550   75 78  160/  8/  8 1018.6    4/ 8   3/ 8
CAPE LOOKOUT     1600   78     210/ 13/ 16 1017.9
BEAUFORT LAB     1600   78 74  210/ 12/ 16 1017.2
30 SE NEW RVR IN 1608   76 76  230/ 14/ 17 1018.3
30 SE NEW RVR IN 1543      76                N/A     3/ 7
27 SE WRIGHTSVLE 1608   76 76  210/ 12/ 17 1017.6
5 SE WRIGHTSVLE  1608   76 75  200/  8/ 16 1017.9
225 S CAPE HAT   1550   75 77  240/  6/  8 1020.2    3/ 8   3/ 8
41 SE CHARLESTON 1610   78 78  200/ 10/ 12 1018.3

$$




USA.gov is the U.S. government's official web portal to all federal, state and local government web resources and services.